DW5321 Paradera AW current weather conditions

sailwx.info

Wind from 108 at 13 knots gusting 19

Air temperature 28.9° C
Dewpoint 25.3° C

Last reported at 2014-Jul-28 13:46 UTC.
Time now 2014-Jul-28 14:22 UTC

Location: N 12°33' W 070°00'.
View on Google Maps.

See reports from other nearby stations

  
Tides and Currents Weather Stations Pressure Air Temp Water Temp Dewpoint Dewpoint Depression Visibility Wind Speed Wind Dir Waves Ship Positions
date/time (UTC)wind fromknots sea level pressurealtimeterstation pressurevisibilityair tempwater tempwave heightnotes
2014-Jul-28 13:46 108 13 gusting 19 28.9
2014-Jul-28 13:31 113 10 gusting 19 28.9
2014-Jul-28 13:16 114 13 gusting 19 28.3
2014-Jul-28 13:01 111 12 gusting 17 28.3
2014-Jul-28 12:16 110 7 gusting 17 28.3
2014-Jul-28 12:01 081 6 gusting 16 27.8
2014-Jul-28 11:45 085 10 gusting 15 27.2
2014-Jul-28 11:30 027 6 gusting 14 27.2
2014-Jul-28 11:15 108 7 gusting 13 26.7
2014-Jul-28 11:00 103 4 gusting 13 26.7
2014-Jul-28 10:46 117 4 gusting 9 26.7
2014-Jul-28 10:30 101 6 gusting 11 26.7
2014-Jul-28 10:15 120 8 gusting 13 26.7
2014-Jul-28 10:00 104 6 gusting 12 26.7
2014-Jul-28 09:45 084 7 gusting 11 26.7
2014-Jul-28 09:31 071 6 gusting 11 26.7
2014-Jul-28 09:15 095 6 gusting 11 26.7
2014-Jul-28 09:00 084 7 gusting 12 26.7
2014-Jul-28 08:45 088 5 gusting 11 26.7
2014-Jul-28 08:30 086 6 gusting 11 26.7
2014-Jul-28 08:15 072 6 gusting 11 26.7
2014-Jul-28 08:00 072 6 gusting 10 26.7
2014-Jul-28 07:46 104 6 gusting 11 26.7
2014-Jul-28 07:30 101 7 gusting 13 26.7
2014-Jul-28 07:15 122 9 gusting 14 26.7
2014-Jul-28 07:00 084 7 gusting 10 27.2
2014-Jul-28 06:45 091 6 gusting 11 26.7
2014-Jul-28 06:30 073 9 gusting 13 26.7
2014-Jul-28 06:15 103 8 gusting 14 26.7
2014-Jul-28 06:00 097 6 gusting 11 27.2
2014-Jul-28 05:45 110 6 gusting 14 26.7
2014-Jul-28 05:30 091 6 gusting 13 27.2
2014-Jul-28 05:15 109 4 gusting 10 27.2
2014-Jul-28 05:00 114 4 gusting 11 27.2
2014-Jul-28 04:45 094 4 gusting 9 27.2
2014-Jul-28 04:30 098 6 gusting 10 27.2
2014-Jul-28 04:15 090 6 gusting 12 27.2
2014-Jul-28 04:00 089 5 gusting 10 27.2
2014-Jul-28 03:45 084 5 gusting 13 27.2
2014-Jul-28 03:31 084 6 gusting 10 27.2
2014-Jul-28 03:15 072 6 gusting 11 27.2
2014-Jul-28 03:00 095 7 gusting 13 27.2
2014-Jul-28 02:45 097 5 gusting 11 27.2
2014-Jul-28 02:30 071 5 gusting 13 27.2
2014-Jul-28 02:14 127 7 gusting 14 27.2
2014-Jul-28 01:59 090 7 gusting 12 27.2
2014-Jul-28 01:44 084 8 gusting 13 27.2
2014-Jul-28 01:29 097 6 gusting 13 27.2
2014-Jul-28 01:14 077 6 gusting 12 27.2
2014-Jul-28 00:59 080 3 gusting 13 27.2
2014-Jul-28 00:44 084 6 gusting 12 27.2
2014-Jul-28 00:29 088 6 gusting 13 27.2
2014-Jul-28 00:14 079 5 gusting 9 27.2
2014-Jul-28 00:00 112 7 gusting 13 27.2
2014-Jul-27 23:45 098 8 gusting 13 27.2
2014-Jul-27 23:30 134 6 gusting 12 27.2
2014-Jul-27 23:15 082 5 gusting 10 27.2
2014-Jul-27 23:00 107 6 gusting 12 27.8
2014-Jul-27 22:45 078 5 gusting 11 27.8
2014-Jul-27 22:30 074 6 gusting 13 28.3
2014-Jul-27 22:15 115 6 gusting 14 28.3
2014-Jul-27 22:00 069 8 gusting 18 28.3
2014-Jul-27 21:45 107 7 gusting 13 28.3
2014-Jul-27 21:29 072 8 gusting 14 28.3
2014-Jul-27 21:14 040 7 gusting 13 28.3
2014-Jul-27 20:59 103 6 gusting 13 28.9
2014-Jul-27 20:44 082 8 gusting 15 28.9
2014-Jul-27 20:29 077 6 gusting 12 29.4
2014-Jul-27 20:14 080 9 gusting 14 29.4
2014-Jul-27 19:59 079 8 gusting 13 29.4
2014-Jul-27 19:44 073 7 gusting 15 29.4
2014-Jul-27 19:29 107 13 gusting 17 29.4
2014-Jul-27 19:14 105 12 gusting 18 29.4
2014-Jul-27 18:59 094 12 gusting 16 29.4
2014-Jul-27 18:44 100 7 gusting 13 30.0
2014-Jul-27 18:29 109 9 gusting 17 30.0
2014-Jul-27 18:14 105 8 gusting 16 30.0
2014-Jul-27 17:59 108 12 gusting 16 30.0
2014-Jul-27 17:44 115 9 gusting 15 30.0
2014-Jul-27 17:29 108 6 gusting 18 29.4
2014-Jul-27 17:14 101 8 gusting 15 30.0
2014-Jul-27 16:59 142 12 gusting 18 29.4
2014-Jul-27 16:44 075 8 gusting 18 30.0
2014-Jul-27 16:29 114 10 gusting 18 29.4
2014-Jul-27 16:14 048 8 gusting 23 29.4
2014-Jul-27 15:59 078 10 gusting 21 29.4
2014-Jul-27 15:44 099 10 gusting 19 29.4
2014-Jul-27 15:29 101 12 gusting 19 29.4
2014-Jul-27 15:14 131 11 gusting 18 29.4
2014-Jul-27 14:59 107 11 gusting 15 28.9
2014-Jul-27 14:44 111 12 gusting 18 28.9
2014-Jul-27 14:29 082 8 gusting 19 28.9
2014-Jul-27 14:14 112 11 gusting 18 28.3
2014-Jul-27 13:59 069 12 gusting 18 27.2
2014-Jul-27 13:44 098 9 gusting 14 26.7
2014-Jul-27 13:29 122 7 gusting 17 26.1
2014-Jul-27 13:14 165 6 gusting 12 25.6
2014-Jul-27 12:59 096 5 gusting 9 25.0
2014-Jul-27 12:44 130 7 gusting 11 25.0
2014-Jul-27 12:29 120 4 gusting 7 24.4
2014-Jul-27 12:14 072 6 gusting 13 23.9
2014-Jul-27 11:59 084 8 gusting 13 26.1
2014-Jul-27 11:44 084 6 gusting 11 26.1
2014-Jul-27 11:29 079 3 gusting 8 26.1
2014-Jul-27 11:14 084 5 gusting 10 26.1
2014-Jul-27 10:59 104 4 gusting 11 25.6
2014-Jul-27 10:44 110 6 gusting 9 25.6
2014-Jul-27 10:28 066 6 gusting 10 25.6
2014-Jul-27 10:13 082 3 gusting 6 25.6
2014-Jul-27 09:58 073 3 gusting 7 25.6
2014-Jul-27 09:43 071 5 gusting 7 25.0
2014-Jul-27 09:28 073 4 gusting 6 25.0
2014-Jul-27 09:13 122 2 gusting 4 24.4
2014-Jul-27 08:58 104 4 gusting 6 24.4
2014-Jul-27 08:43 105 3 gusting 6 24.4
2014-Jul-27 08:28 072 3 gusting 7 24.4
2014-Jul-27 08:13 077 3 gusting 5 24.4
2014-Jul-27 07:58 084 2 gusting 4 24.4
2014-Jul-27 07:43 071 1 gusting 6 23.9
2014-Jul-27 07:28 034 0 gusting 3 23.9
2014-Jul-27 07:13 077 2 gusting 5 23.9
2014-Jul-27 06:58 072 1 gusting 4 23.9
2014-Jul-27 06:43 066 0 gusting 3 23.9
2014-Jul-27 06:28 101 1 gusting 5 23.9
2014-Jul-27 06:13 082 1 gusting 5 23.9
2014-Jul-27 05:58 073 1 gusting 6 23.9
2014-Jul-27 05:43 079 4 gusting 6 23.9
2014-Jul-27 05:28 104 5 gusting 11 23.9
2014-Jul-27 05:13 073 4 gusting 7 24.4
2014-Jul-27 04:58 047 0 gusting 4 24.4
2014-Jul-27 04:43 087 24.4
2014-Jul-27 04:28 075 0 gusting 4 24.4
2014-Jul-27 04:13 112 3 gusting 5 24.4
2014-Jul-27 03:58 175 1 gusting 6 24.4
2014-Jul-27 03:43 130 5 gusting 13 24.4
2014-Jul-27 03:28 117 1 gusting 9 24.4
2014-Jul-27 03:13 143 4 gusting 11 25.0
2014-Jul-27 02:58 194 7 gusting 15 25.0
2014-Jul-27 02:43 171 6 gusting 15 25.6
2014-Jul-27 02:28 105 10 gusting 15 27.8
2014-Jul-27 02:12 086 11 gusting 15 27.8
2014-Jul-27 01:57 111 9 gusting 18 27.8
2014-Jul-27 01:42 101 11 gusting 16 27.8
2014-Jul-27 01:27 082 11 gusting 17 27.8
2014-Jul-27 01:12 090 11 gusting 17 27.8
2014-Jul-27 00:58 097 7 gusting 15 27.8
2014-Jul-27 00:43 068 7 gusting 19 27.8
2014-Jul-27 00:27 084 8 gusting 15 27.8
2014-Jul-27 00:13 097 7 gusting 13 27.8
2014-Jul-26 23:57 099 7 gusting 13 27.8
2014-Jul-26 23:43 073 9 gusting 14 27.8
2014-Jul-26 23:27 073 6 gusting 13 27.8
2014-Jul-26 23:12 077 12 gusting 18 27.8
2014-Jul-26 22:57 084 6 gusting 14 27.8
2014-Jul-26 22:41 079 10 gusting 14 28.3
2014-Jul-26 22:26 056 9 gusting 14 28.3
2014-Jul-26 22:11 082 8 gusting 15 28.9
2014-Jul-26 21:56 077 11 gusting 19 28.9
2014-Jul-26 21:41 072 9 gusting 14 28.9
2014-Jul-26 21:26 100 12 gusting 22 29.4
2014-Jul-26 21:11 078 9 gusting 18 29.4
2014-Jul-26 20:56 094 9 gusting 16 29.4
2014-Jul-26 20:41 073 6 gusting 16 29.4
2014-Jul-26 20:26 077 8 gusting 16 28.9
2014-Jul-26 20:11 074 9 gusting 19 28.9
2014-Jul-26 19:56 069 9 gusting 20 29.4
2014-Jul-26 19:41 049 9 gusting 20 30.0
2014-Jul-26 19:26 048 9 gusting 16 30.0
2014-Jul-26 19:11 100 10 gusting 16 30.0
2014-Jul-26 18:55 086 8 gusting 19 29.4
2014-Jul-26 18:40 074 7 gusting 14 29.4
2014-Jul-26 18:25 100 8 gusting 17 29.4
2014-Jul-26 18:10 082 7 gusting 13 28.3
2014-Jul-26 17:55 132 6 gusting 13 29.4
2014-Jul-26 17:39 097 9 gusting 16 29.4
2014-Jul-26 17:24 108 7 gusting 13 29.4
2014-Jul-26 17:09 101 10 gusting 17 28.9
2014-Jul-26 16:54 048 11 gusting 16 29.4
2014-Jul-26 16:39 127 13 gusting 20 30.6
2014-Jul-26 16:24 086 14 gusting 20 30.0
2014-Jul-26 16:09 093 10 gusting 19 30.0
2014-Jul-26 15:54 106 11 gusting 18 30.0
2014-Jul-26 15:39 105 9 gusting 18 30.0
2014-Jul-26 15:24 074 11 gusting 20 29.4
2014-Jul-26 14:54 117 13 gusting 18 28.9
2014-Jul-26 14:40 111 11 gusting 19 29.4
2014-Jul-26 14:24 127 9 gusting 15 29.4
2014-Jul-26 14:09 108 12 gusting 19 28.9